FENGYUN 1C DEB, 31639

Orbit data source: Space-Track

FENGYUN 1C DEB, 31639 is space debris in SSO originally from a launch on Mon, 10 May 1999 UTC launched from the Taiyaun Space Center, China (TSC). Fengyun 1C debris stems from the Chinese weather satellite Fengyun-1C, which was intentionally destroyed by a Chinese anti-satellite missile in 2007. This event dramatically increased the amount of space debris, with thousands of trackable fragments posing hazards to satellites and human spaceflight. The Fengyun 1C debris cloud has become a focal point in discussions about space sustainability and the need for international regulations to prevent the creation of new debris.

Loading next visibility...
Identifier
31639, 1999-025CAV
Orbit
SSO
Country
Flag of CNCN / PRC
Related business
Manufacturer
Unknown
Mission
Spacecraft
Bus & Motor
Unknown
Mass
Unknown
Launch date (UTC)
1999-05-10 (27 years ago)
Launch vehicle
Unknown
Launch site
Taiyaun Space Center, China (TSC)
Object type
Payload
Rocket body
Debris
Shape & HBR
Unknown shape, 0.1 m
Radar Cross Section
Small (<0.1 m²)

Expand to show TLE details & history
Last TLE update: 2 days ago

TLE from 2 days ago
0 FENGYUN 1C DEB
1 31639U 99025CAV 26168.08975472  .00000121  00000-0  12880-3 0  9998
2 31639  98.7632 106.7573 0161247 359.7595  17.6145 13.85243587962683
Epoch: 2026-06-17T02:09Z
TLE epoch observation values (Epoch: 2026-06-17T02:09:14.807Z)
Latitude
17.71927°
Longitude
166.28504°
Altitude
835.245 km
Speed
7.494 km/s
True Right ascension
06h 55m 47s
True Declination
17° 37' 15"
Sunlit
Object was in daylight at epoch
Visualization orbit readout
Latitude
Unknown
Longitude
Unknown
Altitude
Unknown
Speed
Unknown
Apparent Right ascension
Unknown
Apparent Declination
Unknown
Sunlit
N/A
Visualization observer readout
Local Sidereal Time
10:31:24
Azimuth
Unknown
Elevation
Unknown
Doppler factor
Unknown
Orbital elements
Apogee altitude
1,060.598 km
Perigee altitude
824.51 km
Semi-major axis
7,320.691 km
Eccentricity
0.01612
Inclination
98.7632°
RAAN
106.7573°
Arg. of periapsis
359.7595°
True anomaly
18.18458°
Mean anomaly
17.6145°
Eccentric anomaly
17.89844°
Mean motion
3.46509 °/min
Orbital period
103.89 mins
BSTAR
0.0001288
Loading maneuver chart data...
Computing Atmospheric mass density...

Documentation

Showing up to 5 results
|